King Salmon, AK

11:42 PM AKDT on August 29, 2016 (GMT -0800)
Port Heiden

Weather History for PAPH - November, 2013

Change the Weather History Date:

Saturday, November 2, 2013

  Actual Average Record
Temperature  
Mean Temperature 46 °F -  
Max Temperature 50 °F 37 °F 55 °F (2003)
Min Temperature 42 °F 28 °F 14 °F (2012)
Degree Days  
Heating Degree Days 19    
Moisture  
Dew Point 37 °F    
Average Humidity 70    
Maximum Humidity 81    
Minimum Humidity 46    
Precipitation  
Precipitation 0.02 in - - ()
Sea Level Pressure  
Sea Level Pressure 29.48 in    
Wind  
Wind Speed 24 mph (SSE)    
Max Wind Speed 44 mph    
Max Gust Speed 56 mph    
Visibility 10 miles    
Events      
Averages and records for this station are not official NWS values.
T = Trace of Precipitation, MM = Missing Value Source: NWS Daily Summary

Daily Weather History Graph

Daily Weather History Graph

Search for Another Location

Airport or City:

Trip Planner

Search our weather history database for the weather conditions in past years. The results will help you decide how hot, cold, wet, or windy it might be!

Date:

Astronomy

Nov. 02, 2013 Rise Set
Actual Time 9:48 AM AKDT 6:47 PM AKDT
Civil Twilight 9:07 AM AKDT 7:28 PM AKDT
Nautical Twilight 8:21 AM AKDT 8:13 PM AKDT
Astronomical Twilight 7:37 AM AKDT 8:57 PM AKDT
Moon 8:52 AM AKDT (11/2) 6:28 PM AKDT (11/2)
Length of Visible Light 10h 21m
Length of Day
8h 58m
Waning Crescent, 1% of the Moon is Illuminated
Nov 2
Waning Crescent
Nov 3
New
Nov 9
First Quarter
Nov 17
Full
Nov 25
Last Quarter

Hourly Weather History & Observations

Time (AKDT) Temp. Windchill Dew Point Humidity Pressure Visibility Wind Dir Wind Speed Gust Speed Precip Events Conditions
12:16 AM - - - N/A% 29.71 in 10.0 mi SE 31.1 mph 38.0 mph N/A   Overcast
12:36 AM - - - N/A% 29.68 in 10.0 mi SE 36.8 mph 46.0 mph N/A   Overcast
12:56 AM - - - N/A% 29.66 in 10.0 mi SE 35.7 mph 42.6 mph N/A   Overcast
1:16 AM - - - N/A% 29.63 in 10.0 mi SSE 39.1 mph 49.5 mph N/A   Overcast
1:36 AM - - - N/A% 29.62 in 10.0 mi SSE 35.7 mph 46.0 mph N/A   Mostly Cloudy
1:56 AM 42.8 °F 30.5 °F 30.2 °F 61% 29.58 in 10.0 mi SSE 42.6 mph 50.6 mph N/A   Mostly Cloudy
2:16 AM - - - N/A% 29.57 in 10.0 mi SE 35.7 mph 51.8 mph N/A   Scattered Clouds
2:36 AM - - - N/A% 29.55 in 10.0 mi SE 41.4 mph 52.9 mph N/A   Partly Cloudy
2:56 AM 42.8 °F 30.4 °F 30.2 °F 61% 29.52 in 10.0 mi SE 43.7 mph 55.2 mph N/A   Clear
3:16 AM - - - N/A% 29.50 in 10.0 mi SE 40.3 mph 56.4 mph N/A   Clear
3:36 AM - - - N/A% 29.50 in 10.0 mi SSE 41.4 mph 52.9 mph N/A   Clear
3:56 AM - - - N/A% 29.49 in 10.0 mi SE 42.6 mph 50.6 mph N/A   Mostly Cloudy
4:16 AM - - - N/A% 29.46 in 10.0 mi SE 38.0 mph 44.9 mph N/A   Mostly Cloudy
4:36 AM - - - N/A% 29.46 in 10.0 mi SE 36.8 mph 42.6 mph N/A   Partly Cloudy
4:56 AM - - - N/A% 29.45 in 10.0 mi SE 31.1 mph 42.6 mph N/A   Clear
5:16 AM - - - N/A% 29.45 in 10.0 mi SE 27.6 mph 34.5 mph N/A   Clear
5:36 AM 46.4 °F 39.0 °F 37.4 °F 71% 29.45 in 10.0 mi SE 19.6 mph 31.1 mph N/A   Scattered Clouds
5:56 AM 46.4 °F 39.0 °F 37.4 °F 71% 29.44 in 10.0 mi SE 19.6 mph 25.3 mph N/A   Scattered Clouds
6:16 AM 46.4 °F 38.7 °F 37.4 °F 71% 29.43 in 10.0 mi SE 20.7 mph - N/A   Clear
6:36 AM 46.4 °F 39.0 °F 37.4 °F 71% 29.43 in 10.0 mi SE 19.6 mph - N/A   Clear
6:56 AM 46.4 °F 38.5 °F 37.4 °F 71% 29.41 in 10.0 mi SSE 21.9 mph - N/A   Clear
7:16 AM 46.4 °F 38.5 °F 37.4 °F 71% 29.41 in 10.0 mi SSE 21.9 mph 27.6 mph N/A   Clear
7:36 AM 44.6 °F 36.4 °F 37.4 °F 76% 29.41 in 10.0 mi SSE 20.7 mph - N/A   Clear
7:56 AM 46.4 °F 39.0 °F 37.4 °F 71% 29.41 in 10.0 mi SSE 19.6 mph - N/A   Clear
8:16 AM 46.4 °F 39.0 °F 35.6 °F 66% 29.40 in 10.0 mi SSE 19.6 mph 23.0 mph N/A   Clear
8:36 AM 46.4 °F 39.5 °F 35.6 °F 66% 29.40 in 10.0 mi SSE 17.3 mph - N/A   Clear
8:56 AM 46.4 °F 39.5 °F 35.6 °F 66% 29.40 in 10.0 mi SSE 17.3 mph - N/A   Clear
9:16 AM 44.6 °F 36.9 °F 35.6 °F 71% 29.40 in 10.0 mi SSE 18.4 mph - N/A   Clear
9:36 AM 44.6 °F 37.2 °F 35.6 °F 71% 29.40 in 10.0 mi SSE 17.3 mph 23.0 mph N/A   Clear
9:56 AM 44.6 °F 37.4 °F 35.6 °F 71% 29.40 in 10.0 mi SSE 16.1 mph - N/A   Mostly Cloudy
10:16 AM 46.4 °F 39.2 °F 35.6 °F 66% 29.40 in 10.0 mi SE 18.4 mph 24.2 mph N/A   Overcast
10:36 AM 46.4 °F 39.0 °F 35.6 °F 66% 29.40 in 10.0 mi SE 19.6 mph 25.3 mph N/A   Overcast
10:56 AM 46.4 °F 38.5 °F 35.6 °F 66% 29.39 in 10.0 mi SSE 21.9 mph - N/A   Overcast
11:16 AM 46.4 °F 39.5 °F 35.6 °F 66% 29.40 in 10.0 mi SSE 17.3 mph - N/A   Overcast
11:36 AM 46.4 °F 39.0 °F 35.6 °F 66% 29.40 in 10.0 mi SSE 19.6 mph - N/A   Overcast
11:56 AM 46.4 °F 40.1 °F 35.6 °F 66% 29.40 in 10.0 mi SE 15.0 mph - N/A   Overcast
12:16 PM 46.4 °F 40.4 °F 35.6 °F 66% 29.41 in 10.0 mi SE 13.8 mph - N/A   Overcast
12:36 PM 46.4 °F 40.7 °F 35.6 °F 66% 29.41 in 10.0 mi SE 12.7 mph - N/A   Overcast
12:56 PM 48.2 °F - 35.6 °F 62% 29.42 in 10.0 mi SE 16.1 mph - N/A   Overcast
1:16 PM 46.4 °F 39.8 °F 35.6 °F 66% 29.42 in 10.0 mi SSE 16.1 mph 23.0 mph N/A   Overcast
1:36 PM 48.2 °F - 35.6 °F 62% 29.42 in 10.0 mi SSE 16.1 mph 20.7 mph N/A   Overcast
1:56 PM 48.2 °F - 35.6 °F 62% 29.42 in 10.0 mi SSE 16.1 mph 20.7 mph N/A   Overcast
2:16 PM 48.2 °F - 35.6 °F 62% 29.42 in 10.0 mi SSE 17.3 mph 20.7 mph N/A   Overcast
2:36 PM 48.2 °F - 37.4 °F 66% 29.43 in 10.0 mi SSE 12.7 mph 19.6 mph N/A   Overcast
2:56 PM 48.2 °F - 37.4 °F 66% 29.43 in 10.0 mi SSE 13.8 mph 19.6 mph N/A   Overcast
3:16 PM 48.2 °F - 37.4 °F 66% 29.43 in 10.0 mi SSE 13.8 mph - N/A   Overcast
3:36 PM 48.2 °F - 37.4 °F 66% 29.43 in 10.0 mi SSE 13.8 mph - N/A   Overcast
3:56 PM 50.0 °F - 35.6 °F 58% 29.44 in 10.0 mi SSE 12.7 mph - N/A   Overcast
4:16 PM 50.0 °F - 37.4 °F 62% 29.45 in 10.0 mi SSE 11.5 mph - N/A   Overcast
4:36 PM 50.0 °F - 37.4 °F 62% 29.45 in 10.0 mi SSE 9.2 mph - N/A   Overcast
4:56 PM 50.0 °F - 37.4 °F 62% 29.46 in 10.0 mi South 9.2 mph - N/A   Overcast
5:16 PM 50.0 °F - 37.4 °F 62% 29.47 in 10.0 mi SSW 9.2 mph - N/A   Overcast
5:36 PM 48.2 °F - 37.4 °F 66% 29.47 in 10.0 mi SW 8.1 mph - N/A   Overcast
5:56 PM 46.4 °F 42.4 °F 37.4 °F 71% 29.48 in 10.0 mi West 8.1 mph - N/A   Overcast
6:16 PM 44.6 °F 40.2 °F 37.4 °F 76% 29.49 in 10.0 mi West 8.1 mph - N/A   Overcast
6:36 PM 44.6 °F 38.8 °F 39.2 °F 81% 29.51 in 10.0 mi West 11.5 mph - N/A   Overcast
6:56 PM 44.6 °F 40.7 °F 39.2 °F 81% 29.51 in 8.0 mi WSW 6.9 mph - N/A   Overcast
7:16 PM 44.6 °F 40.7 °F 39.2 °F 81% 29.51 in 10.0 mi SW 6.9 mph - N/A   Overcast
7:36 PM 44.6 °F 41.4 °F 39.2 °F 81% 29.52 in 4.0 mi WSW 5.8 mph - 0.01 in   Overcast
7:56 PM 44.6 °F 40.2 °F 39.2 °F 81% 29.52 in 8.0 mi WSW 8.1 mph - 0.01 in   Overcast
8:16 PM 44.6 °F 39.7 °F 39.2 °F 81% 29.53 in 2.5 mi SW 9.2 mph - N/A   Overcast
8:36 PM 44.6 °F 40.7 °F 39.2 °F 81% 29.54 in 5.0 mi SW 6.9 mph - N/A   Overcast
8:56 PM 44.6 °F 40.2 °F 39.2 °F 81% 29.55 in 10.0 mi SSW 8.1 mph - 0.01 in   Overcast
9:16 PM 44.6 °F 40.7 °F 39.2 °F 81% 29.54 in 10.0 mi SE 6.9 mph - N/A   Overcast
9:36 PM 44.6 °F 41.4 °F 39.2 °F 81% 29.55 in 10.0 mi South 5.8 mph - N/A   Mostly Cloudy
9:56 PM 44.6 °F 42.2 °F 39.2 °F 81% 29.56 in 10.0 mi South 4.6 mph - N/A   Overcast
10:16 PM 44.6 °F 40.7 °F 37.4 °F 76% 29.56 in 10.0 mi SSE 6.9 mph - N/A   Mostly Cloudy
10:36 PM 42.8 °F 37.0 °F 37.4 °F 81% 29.54 in 10.0 mi SE 10.4 mph - N/A   Overcast
10:56 PM 42.8 °F 38.6 °F 37.4 °F 81% 29.55 in 10.0 mi SE 6.9 mph - N/A   Overcast
11:16 PM 42.8 °F - 37.4 °F 81% 29.55 in 10.0 mi Calm Calm - N/A   Overcast
11:36 PM 42.8 °F 39.3 °F 37.4 °F 81% 29.56 in 10.0 mi WSW 5.8 mph - N/A   Overcast
11:56 PM 42.8 °F 41.1 °F 37.4 °F 81% 29.55 in 10.0 mi SSW 3.5 mph - N/A   Overcast